#timestamp,LO_Frequency,Hit,StdDev 
1539147615.0,286047001.7,N
1539147615.9,286047001.7,N
1539147635.7,286047004.0,N
1539147655.6,286047001.3,N
1539147675.4,286047003.4,N
1539147695.3,286047005.9,Y
1539147715.1,286047001.7,P
1539147735.8,286047001.5,P
1539147755.7,286047000.1,N
1539147775.5,286047002.5,Y
1539147795.4,286047000.0,P
1539147815.2,286047000.6,N
1539147835.0,286047000.1,N
1539147835.9,286047000.1,N
1539147855.8,286046999.8,N
1539147875.6,286046999.8,N
1539147895.5,286047002.7,Y
1539147915.3,286047002.8,P
1539147935.1,286047000.1,N
1539147955.9,286047000.0,N
1539147975.7,286047002.2,N
1539147995.5,286047002.4,N
1539148015.4,286047002.7,N
1539148035.2,286047002.0,N
1539148055.1,286047002.6,N
1539148056.0,286047002.6,N
1539148075.8,286047002.6,N
1539148095.6,286047002.8,N
1539148115.5,286047002.4,N
1539148135.3,286047002.5,N
1539148155.1,286047001.8,N
1539148175.9,286047002.6,N
1539148195.7,286047002.0,N
1539148215.6,286047001.6,N
1539148235.4,286047002.2,N
1539148255.2,286047002.7,Y
1539148275.1,286046998.1,P
1539148276.0,286046998.1,N
1539148295.8,286047000.9,N
1539148315.6,286047000.5,N
1539148335.5,286047002.4,N
1539148355.3,286047000.4,N
1539148375.2,286047002.8,N
1539148395.9,286047000.1,N
1539148415.7,286047002.4,N
1539148435.6,286047001.6,N
1539148455.4,286047002.0,N
1539148475.2,286047000.2,N
1539148495.1,286047001.9,N
1539148496.0,286047001.9,N
1539148515.8,286047003.9,N
1539148535.7,286047001.3,N
1539148555.5,286047003.6,N
1539148575.3,286047003.7,N
1539148595.2,286047003.5,N
1539148615.0,286047003.7,N
1539148615.9,286047003.7,N
1539148635.7,286047003.0,N
1539148655.6,286047005.1,Y
1539148675.4,286047001.3,P
1539148695.3,286047003.7,P
1539148715.1,286047001.7,N
1539148735.8,286047001.6,N
1539148755.7,286047004.3,Y
1539148775.5,286047000.3,P
1539148795.4,286047002.8,P
1539148815.2,286047000.0,N
1539148835.0,286047002.8,N
1539148835.9,286047002.8,N
1539148855.8,286047002.3,N
1539148875.6,286047002.3,N
1539148895.4,286047002.8,N
1539148915.3,286046999.7,N
1539148935.1,286047001.9,N
1539148955.9,286047011.9,Y
1539148975.7,286047000.2,P
1539148995.5,286047001.6,N
1539149015.4,286047001.5,N
1539149035.2,286047002.3,Y
1539149055.0,286047000.2,P
1539149056.0,286047000.2,N
1539149075.8,286047002.8,P
1539149095.6,286047000.7,N
1539149115.5,286047000.8,N
1539149135.3,286046999.2,N
1539149155.1,286046998.8,N
1539149175.9,286046998.8,N
1539149195.7,286046999.3,N
1539149215.6,286046998.5,N
1539149235.4,286046998.5,N
1539149255.2,286046999.4,N
1539149275.1,286046997.0,N
1539149276.0,286046997.0,N
1539149295.8,286046996.9,N
1539149315.6,286046996.7,N
1539149335.5,286046999.6,N
1539149355.3,286046998.9,N
1539149375.1,286046998.8,N
1539149395.9,286046998.3,N
1539149415.7,286046998.1,N
1539149435.6,286046998.8,N
1539149455.4,286046999.2,N
1539149475.2,286046997.2,N
1539149495.1,286046999.1,N
1539149496.0,286046999.1,N
1539149515.8,286046998.8,N
1539149535.7,286046999.6,N
1539149555.5,286046997.2,N
1539149575.3,286046997.0,N
1539149595.2,286046997.2,N
1539149615.9,286046996.8,N
1539149635.7,286046996.5,N
1539149655.6,286046999.1,N
1539149675.4,286046998.6,N
1539149695.3,286047000.8,N
1539149715.1,286046998.1,N
1539149716.0,286046998.1,N
1539149735.8,286046999.2,N
1539149755.7,286047001.2,N
1539149775.5,286046998.8,N
1539149795.3,286046998.9,N
1539149815.2,286047000.8,N
1539149835.0,286046998.1,N
1539149835.9,286046998.1,N
1539149855.8,286046998.5,N
1539149875.6,286046999.5,N
1539149895.4,286046999.3,N
1539149915.3,286046998.5,N
1539149935.1,286046999.4,N
1539149955.8,286046998.2,N
1539149975.7,286046998.1,N
1539149995.5,286047002.8,N
1539150015.4,286047001.5,N
1539150035.2,286047002.6,N
1539150055.0,286047000.1,N
1539150055.9,286047000.1,N
1539150075.8,286047002.8,N
1539150095.6,286047000.2,N
1539150115.5,286047000.3,N
1539150135.3,286047002.6,N
1539150155.1,286047000.3,N
1539150175.9,286047002.4,N
1539150195.7,286047002.8,N
1539150215.5,286047002.5,N
1539150235.4,286046999.9,N
1539150255.2,286047000.4,N
1539150275.1,286047000.9,N
1539150276.0,286047000.9,N
1539150295.8,286047000.1,N
1539150315.6,286046999.8,N
1539150335.5,286047000.5,N
1539150355.3,286046998.4,N
1539150405.2,286047000.3,E
1539150415.1,286047000.2,N
1539150416.0,286047000.2,P
1539150435.8,286047000.4,P
1539150455.7,286047002.3,Y
1539150475.5,286047001.9,P
1539150495.4,286047003.8,P
1539150515.2,286047005.2,P
1539150535.0,286047005.1,N
1539150535.9,286047005.1,N
1539150555.8,286047005.0,N
1539150575.6,286047007.4,Y
1539150595.4,286047003.6,P
1539150615.3,286047003.7,P
1539150635.1,286047003.8,P
1539150655.9,286047001.4,Y
1539150675.7,286046999.0,P
1539150695.5,286047000.5,N
1539150715.4,286046998.5,N
1539150735.2,286046998.6,N
1539150755.0,286046998.6,N
1539150756.0,286046998.6,N
1539150775.8,286046998.9,N
1539150795.6,286046998.3,N
1539150815.5,286047000.9,N
1539150835.3,286047000.7,N
1539150855.1,286046998.1,N
1539150875.9,286046999.2,N
1539150895.7,286046997.7,N
1539150915.6,286046997.5,N
1539150935.4,286046995.4,N
1539150955.2,286046996.3,N
1539150975.1,286046995.5,N
1539150976.0,286046995.5,N
1539150995.8,286046995.0,N
1539151015.6,286046997.3,N
1539151035.5,286046997.5,N
1539151055.3,286046995.7,N
1539151075.2,286046996.0,N
1539151095.9,286046993.5,Y
1539151115.7,286046997.4,P
1539151135.6,286046995.3,P
1539151155.4,286046995.6,P
1539151175.2,286046996.3,Y
1539151195.1,286046998.3,P
1539151196.0,286046998.3,N
